Time,TemperatureF,DewpointF,PressureIn,WindDirection,WindDirectionDegrees,WindSpeedMPH,WindSpeedGustMPH,Humidity,HourlyPrecipIn,Conditions,Clouds,dailyrainin,SoftwareType,DateUTC
2013-02-08 00:04:00,21.2,6.7,30.47,ESE,109,1.0,4.0,53,0.00,OVC,,0.00,WeatherDisplay:10.37,2013-02-08 05:04:00,
2013-02-08 00:14:00,21.0,7.3,30.47,ESE,118,2.0,6.0,55,0.00,OVC,,0.00,WeatherDisplay:10.37,2013-02-08 05:14:00,
2013-02-08 00:24:00,20.9,7.2,30.47,ESE,110,2.0,5.0,55,0.00,OVC,,0.00,WeatherDisplay:10.37,2013-02-08 05:24:00,
2013-02-08 00:34:00,20.7,7.1,30.46,ESE,110,1.0,5.0,55,0.00,OVC,,0.00,WeatherDisplay:10.37,2013-02-08 05:34:00,
2013-02-08 00:44:00,20.6,7.0,30.46,ESE,102,3.0,5.0,55,0.00,OVC,,0.00,WeatherDisplay:10.37,2013-02-08 05:44:00,
2013-02-08 00:54:00,20.6,7.8,30.45,ESE,109,3.0,5.0,57,0.00,OVC,,0.00,WeatherDisplay:10.37,2013-02-08 05:54:00,
2013-02-08 01:04:00,20.7,8.2,30.44,East,100,3.0,7.0,58,0.00,OVC,,0.00,WeatherDisplay:10.37,2013-02-08 06:04:00,
2013-02-08 01:14:00,20.7,8.6,30.44,East,97,2.0,6.0,59,0.00,OVC,,0.00,WeatherDisplay:10.37,2013-02-08 06:14:00,
2013-02-08 01:24:00,20.6,8.9,30.43,East,99,2.0,5.0,60,0.00,BKN,,0.00,WeatherDisplay:10.37,2013-02-08 06:24:00,
2013-02-08 01:34:00,20.5,9.1,30.43,East,98,3.0,5.0,61,0.00,BKN,,0.00,WeatherDisplay:10.37,2013-02-08 06:34:00,
2013-02-08 01:44:00,20.6,10.0,30.43,East,88,5.0,6.0,63,0.00,BKN,,0.00,WeatherDisplay:10.37,2013-02-08 06:44:00,
2013-02-08 01:54:00,20.7,10.4,30.42,East,100,3.0,6.0,64,0.00,BKN,,0.00,WeatherDisplay:10.37,2013-02-08 06:54:00,
2013-02-08 02:04:00,20.8,10.5,30.42,ENE,74,3.0,7.0,64,0.00,OVC,,0.00,WeatherDisplay:10.37,2013-02-08 07:04:00,
2013-02-08 02:14:00,20.9,11.0,30.42,East,96,3.0,6.0,65,0.00,OVC,,0.00,WeatherDisplay:10.37,2013-02-08 07:14:00,
2013-02-08 02:24:00,21.0,11.4,30.41,East,88,3.0,7.0,66,0.00,OVC,,0.00,WeatherDisplay:10.37,2013-02-08 07:24:00,
2013-02-08 02:34:00,21.0,11.8,30.40,East,97,2.0,7.0,67,0.00,OVC,,0.00,WeatherDisplay:10.37,2013-02-08 07:34:00,
2013-02-08 02:44:00,21.2,12.3,30.40,East,93,3.0,7.0,68,0.00,OVC,,0.00,WeatherDisplay:10.37,2013-02-08 07:44:00,
2013-02-08 02:54:00,21.3,12.7,30.39,East,92,5.0,7.0,69,0.00,OVC,,0.00,WeatherDisplay:10.37,2013-02-08 07:54:00,
2013-02-08 03:04:00,21.5,13.5,30.39,East,88,5.0,10.0,71,0.00,OVC,,0.00,WeatherDisplay:10.37,2013-02-08 08:04:00,
2013-02-08 03:14:00,21.7,14.0,30.39,East,85,6.0,10.0,72,0.00,OVC,,0.00,WeatherDisplay:10.37,2013-02-08 08:14:00,
2013-02-08 03:24:00,21.7,14.1,30.38,East,98,5.0,10.0,72,0.00,OVC,,0.00,WeatherDisplay:10.37,2013-02-08 08:24:00,
2013-02-08 03:34:00,21.7,13.4,30.37,East,89,3.0,9.0,70,0.00,OVC,,0.00,WeatherDisplay:10.37,2013-02-08 08:34:00,
2013-02-08 03:44:00,21.7,13.7,30.37,East,101,5.0,9.0,71,0.00,OVC,,0.00,WeatherDisplay:10.37,2013-02-08 08:44:00,
2013-02-08 03:54:00,21.7,13.5,30.37,East,97,5.0,9.0,70,0.00,OVC,,0.00,WeatherDisplay:10.37,2013-02-08 08:54:00,
2013-02-08 04:04:00,21.8,13.8,30.36,East,100,5.0,7.0,71,0.00,OVC,,0.00,WeatherDisplay:10.37,2013-02-08 09:04:00,
2013-02-08 04:14:00,22.0,14.3,30.36,ESE,106,2.0,7.0,72,0.00,OVC,,0.00,WeatherDisplay:10.37,2013-02-08 09:14:00,
2013-02-08 04:24:00,22.1,14.1,30.37,ESE,111,2.0,6.0,71,0.00,OVC,,0.00,WeatherDisplay:10.37,2013-02-08 09:24:00,
2013-02-08 04:34:00,22.1,14.4,30.37,ESE,114,2.0,6.0,72,0.00,OVC,,0.00,WeatherDisplay:10.37,2013-02-08 09:34:00,
2013-02-08 04:44:00,22.1,14.4,30.37,ESE,103,3.0,7.0,72,0.00,OVC,,0.00,WeatherDisplay:10.37,2013-02-08 09:44:00,
2013-02-08 04:54:00,22.1,14.4,30.36,East,94,3.0,7.0,72,0.00,OVC,,0.00,WeatherDisplay:10.37,2013-02-08 09:54:00,
2013-02-08 05:04:00,22.1,14.8,30.35,East,97,3.0,6.0,73,0.00,OVC,,0.00,WeatherDisplay:10.37,2013-02-08 10:04:00,
2013-02-08 05:14:00,22.3,15.3,30.35,East,97,3.0,7.0,74,0.00,OVC,,0.00,WeatherDisplay:10.37,2013-02-08 10:14:00,
2013-02-08 05:24:00,22.3,15.6,30.34,East,97,2.0,6.0,75,0.00,OVC,,0.00,WeatherDisplay:10.37,2013-02-08 10:24:00,
2013-02-08 05:34:00,22.3,15.9,30.34,East,96,2.0,7.0,76,0.00,OVC,,0.00,WeatherDisplay:10.37,2013-02-08 10:34:00,
2013-02-08 05:44:00,22.4,16.0,30.34,East,101,2.0,7.0,76,0.00,OVC,,0.00,WeatherDisplay:10.37,2013-02-08 10:44:00,
2013-02-08 05:54:00,22.6,16.5,30.33,East,99,5.0,7.0,77,0.00,OVC,,0.00,WeatherDisplay:10.37,2013-02-08 10:54:00,
2013-02-08 06:04:00,22.9,17.4,30.33,East,96,6.0,10.0,79,0.00,OVC,,0.00,WeatherDisplay:10.37,2013-02-08 11:04:00,
2013-02-08 06:14:00,23.0,17.7,30.33,East,98,6.0,12.0,80,0.00,OVC,,0.00,WeatherDisplay:10.37,2013-02-08 11:14:00,
2013-02-08 06:24:00,23.5,18.5,30.32,East,101,9.0,12.0,81,0.00,OVC,,0.00,WeatherDisplay:10.37,2013-02-08 11:24:00,
2013-02-08 06:33:00,23.5,18.5,30.32,East,96,6.0,14.0,81,0.00,OVC,,0.00,WeatherDisplay:10.37,2013-02-08 11:33:00,
2013-02-08 06:43:00,23.3,18.3,30.32,East,94,6.0,13.0,81,0.00,OVC,,0.00,WeatherDisplay:10.37,2013-02-08 11:43:00,
2013-02-08 06:53:00,23.5,18.5,30.32,East,99,6.0,12.0,81,0.00,OVC,,0.00,WeatherDisplay:10.37,2013-02-08 11:53:00,
2013-02-08 07:03:00,23.6,18.9,30.32,ESE,103,5.0,9.0,82,0.00,OVC,,0.00,WeatherDisplay:10.37,2013-02-08 12:03:00,
2013-02-08 07:13:00,23.8,19.1,30.32,East,99,5.0,12.0,82,0.00,OVC,,0.00,WeatherDisplay:10.37,2013-02-08 12:13:00,
2013-02-08 07:23:00,23.9,19.2,30.32,East,96,7.0,12.0,82,0.00,OVC,,0.00,WeatherDisplay:10.37,2013-02-08 12:23:00,
2013-02-08 07:33:00,24.1,19.4,30.32,East,93,6.0,10.0,82,0.00,OVC,,0.00,WeatherDisplay:10.37,2013-02-08 12:33:00,
2013-02-08 07:43:00,24.1,19.7,30.31,East,99,5.0,14.0,83,0.00,OVC,,0.00,WeatherDisplay:10.37,2013-02-08 12:43:00,
2013-02-08 07:53:00,24.2,19.8,30.30,East,97,3.0,12.0,83,0.00,OVC,,0.00,WeatherDisplay:10.37,2013-02-08 12:53:00,
2013-02-08 08:03:00,24.4,20.3,30.30,East,88,9.0,13.0,84,0.00,OVC,,0.00,WeatherDisplay:10.37,2013-02-08 13:03:00,
2013-02-08 08:13:00,24.5,20.4,30.30,East,82,6.0,13.0,84,0.00,OVC,,0.00,WeatherDisplay:10.37,2013-02-08 13:13:00,
2013-02-08 08:23:00,24.5,20.6,30.29,East,85,7.0,12.0,85,0.00,OVC,,0.00,WeatherDisplay:10.37,2013-02-08 13:23:00,
2013-02-08 08:33:00,24.8,20.9,30.29,East,87,7.0,12.0,85,0.00,OVC,,0.00,WeatherDisplay:10.37,2013-02-08 13:33:00,
2013-02-08 08:43:00,24.8,20.9,30.29,East,83,6.0,12.0,85,0.00,OVC,,0.00,WeatherDisplay:10.37,2013-02-08 13:43:00,
2013-02-08 08:53:00,24.9,21.0,30.28,East,86,7.0,12.0,85,0.00,OVC,,0.00,WeatherDisplay:10.37,2013-02-08 13:53:00,
2013-02-08 09:03:00,25.1,21.2,30.28,East,88,8.0,13.0,85,0.00,OVC,,0.00,WeatherDisplay:10.37,2013-02-08 14:03:00,
2013-02-08 09:13:00,25.2,21.3,30.27,East,99,6.0,15.0,85,0.00,OVC,,0.00,WeatherDisplay:10.37,2013-02-08 14:13:00,
2013-02-08 09:23:00,25.4,21.5,30.27,East,91,6.0,13.0,85,0.00,OVC,,0.00,WeatherDisplay:10.37,2013-02-08 14:23:00,
2013-02-08 09:33:00,25.8,22.2,30.27,ESE,103,7.0,12.0,86,0.00,OVC,,0.00,WeatherDisplay:10.37,2013-02-08 14:33:00,
2013-02-08 09:43:00,26.0,22.9,30.26,East,100,7.0,12.0,88,0.00,OVC,,0.00,WeatherDisplay:10.37,2013-02-08 14:43:00,
2013-02-08 09:53:00,25.5,22.7,30.26,East,80,7.0,12.0,89,0.00,OVC,,0.00,WeatherDisplay:10.37,2013-02-08 14:53:00,
2013-02-08 10:03:00,25.2,22.9,30.26,East,84,7.0,12.0,91,0.00,-SN,,0.00,WeatherDisplay:10.37,2013-02-08 15:03:00,
2013-02-08 10:13:00,24.9,22.9,30.25,ENE,76,7.0,12.0,92,0.00,-SN,,0.00,WeatherDisplay:10.37,2013-02-08 15:13:00,
2013-02-08 10:23:00,24.8,23.1,30.25,East,83,6.0,13.0,93,0.00,-SN,,0.00,WeatherDisplay:10.37,2013-02-08 15:23:00,
2013-02-08 10:33:00,24.8,23.1,30.25,East,88,7.0,12.0,93,0.00,-SN,,0.00,WeatherDisplay:10.37,2013-02-08 15:33:00,
2013-02-08 10:43:00,24.6,22.9,30.24,ENE,68,6.0,12.0,93,0.00,-SN,,0.00,WeatherDisplay:10.37,2013-02-08 15:43:00,
2013-02-08 10:53:00,24.5,23.0,30.22,ENE,73,9.0,12.0,94,0.00,-SN,,0.00,WeatherDisplay:10.37,2013-02-08 15:53:00,
2013-02-08 11:03:00,24.6,23.1,30.22,ENE,65,7.0,12.0,94,0.00,-SN,,0.00,WeatherDisplay:10.37,2013-02-08 16:03:00,
2013-02-08 11:13:00,24.8,23.3,30.20,ENE,74,8.0,14.0,94,0.00,,,0.00,WeatherDisplay:10.37,2013-02-08 16:13:00,
2013-02-08 11:23:00,24.9,23.4,30.19,ENE,75,8.0,13.0,94,0.00,,,0.00,WeatherDisplay:10.37,2013-02-08 16:23:00,
2013-02-08 11:33:00,24.9,23.4,30.19,ENE,75,7.0,14.0,94,0.00,,,0.00,WeatherDisplay:10.37,2013-02-08 16:33:00,
2013-02-08 11:43:00,24.6,23.1,30.17,ENE,64,7.0,12.0,94,0.00,,,0.00,WeatherDisplay:10.37,2013-02-08 16:43:00,
2013-02-08 11:53:00,24.1,22.6,30.16,ENE,61,6.0,14.0,94,0.00,,,0.00,WeatherDisplay:10.37,2013-02-08 16:53:00,
2013-02-08 12:03:00,23.3,21.8,30.16,ENE,61,7.0,14.0,94,0.00,,,0.00,WeatherDisplay:10.37,2013-02-08 17:03:00,
2013-02-08 12:13:00,22.7,21.2,30.14,ENE,59,8.0,14.0,94,0.00,,,0.00,WeatherDisplay:10.37,2013-02-08 17:13:00,
2013-02-08 12:23:00,22.4,20.9,30.12,NE,49,7.0,14.0,94,0.00,,,0.00,WeatherDisplay:10.37,2013-02-08 17:23:00,
2013-02-08 12:33:00,22.3,20.8,30.12,ENE,63,8.0,15.0,94,0.00,-SN,,0.00,WeatherDisplay:10.37,2013-02-08 17:33:00,
2013-02-08 12:43:00,22.3,20.8,30.11,ENE,59,9.0,13.0,94,0.00,-SN,,0.00,WeatherDisplay:10.37,2013-02-08 17:43:00,
2013-02-08 12:53:00,22.0,20.5,30.10,ENE,58,7.0,13.0,94,0.00,-SN,,0.00,WeatherDisplay:10.37,2013-02-08 17:53:00,
2013-02-08 13:03:00,21.8,20.3,30.10,ENE,67,8.0,13.0,94,0.00,-SN,,0.00,WeatherDisplay:10.37,2013-02-08 18:03:00,
2013-02-08 13:13:00,21.8,20.3,30.09,ENE,67,8.0,14.0,94,0.00,-SN,,0.00,WeatherDisplay:10.37,2013-02-08 18:13:00,
2013-02-08 13:23:00,21.7,20.2,30.08,ENE,60,8.0,16.0,94,0.00,,,0.00,WeatherDisplay:10.37,2013-02-08 18:23:00,
2013-02-08 13:33:00,21.7,20.2,30.08,ENE,65,7.0,16.0,94,0.00,,,0.00,WeatherDisplay:10.37,2013-02-08 18:33:00,
2013-02-08 13:43:00,21.7,20.2,30.07,ENE,64,10.0,15.0,94,0.00,,,0.00,WeatherDisplay:10.37,2013-02-08 18:43:00,
2013-02-08 13:53:00,21.7,20.2,30.06,ENE,65,8.0,14.0,94,0.00,,,0.00,WeatherDisplay:10.37,2013-02-08 18:53:00,
2013-02-08 14:03:00,21.7,20.2,30.06,ENE,61,9.0,16.0,94,0.00,,,0.00,WeatherDisplay:10.37,2013-02-08 19:03:00,
2013-02-08 14:13:00,21.7,20.2,30.04,ENE,60,10.0,16.0,94,0.00,,,0.00,WeatherDisplay:10.37,2013-02-08 19:13:00,
2013-02-08 14:23:00,22.0,20.8,30.02,ENE,58,10.0,18.0,95,0.00,,,0.00,WeatherDisplay:10.37,2013-02-08 19:23:00,
2013-02-08 14:33:00,22.0,20.5,30.02,ENE,63,13.0,18.0,94,0.00,,,0.00,WeatherDisplay:10.37,2013-02-08 19:33:00,
2013-02-08 14:43:00,21.8,20.3,30.01,ENE,64,8.0,20.0,94,0.00,,,0.00,WeatherDisplay:10.37,2013-02-08 19:43:00,
2013-02-08 14:53:00,21.7,20.2,30.01,ENE,63,9.0,15.0,94,0.00,,,0.00,WeatherDisplay:10.37,2013-02-08 19:53:00,
2013-02-08 15:03:00,21.3,19.8,30.01,ENE,62,12.0,20.0,94,0.00,,,0.00,WeatherDisplay:10.37,2013-02-08 20:03:00,
2013-02-08 15:13:00,21.5,20.0,30.00,ENE,65,13.0,18.0,94,0.00,,,0.00,WeatherDisplay:10.37,2013-02-08 20:13:00,
2013-02-08 15:23:00,21.2,19.7,29.98,ENE,61,7.0,20.0,94,0.00,,,0.00,WeatherDisplay:10.37,2013-02-08 20:23:00,
2013-02-08 15:33:00,20.9,19.4,29.98,ENE,60,14.0,21.0,94,0.00,,,0.00,WeatherDisplay:10.37,2013-02-08 20:33:00,
2013-02-08 15:43:00,20.7,19.2,29.97,ENE,62,12.0,24.0,94,0.00,,,0.00,WeatherDisplay:10.37,2013-02-08 20:43:00,
2013-02-08 15:53:00,20.7,19.2,29.95,ENE,59,15.0,21.0,94,0.00,-SN,,0.00,WeatherDisplay:10.37,2013-02-08 20:53:00,
2013-02-08 16:03:00,20.7,19.2,29.95,ENE,58,13.0,18.0,94,0.00,-SN,,0.00,WeatherDisplay:10.37,2013-02-08 21:03:00,
2013-02-08 16:13:00,20.6,19.1,29.94,ENE,57,12.0,24.0,94,0.00,OVC,,0.00,WeatherDisplay:10.37,2013-02-08 21:13:00,
2013-02-08 16:23:00,20.2,18.8,29.93,ENE,59,13.0,22.0,94,0.00,OVC,,0.00,WeatherDisplay:10.37,2013-02-08 21:23:00,
2013-02-08 16:33:00,20.2,18.8,29.93,ENE,60,12.0,21.0,94,0.00,OVC,,0.00,WeatherDisplay:10.37,2013-02-08 21:33:00,
2013-02-08 16:43:00,20.2,18.8,29.91,NE,53,14.0,25.0,94,0.00,OVC,,0.00,WeatherDisplay:10.37,2013-02-08 21:43:00,
2013-02-08 16:53:00,20.0,18.3,29.90,NE,43,12.0,24.0,93,0.00,OVC,,0.00,WeatherDisplay:10.37,2013-02-08 21:53:00,
2013-02-08 17:03:00,19.6,17.9,29.90,ENE,63,13.0,22.0,93,0.00,OVC,,0.00,WeatherDisplay:10.37,2013-02-08 22:03:00,
2013-02-08 17:13:00,19.4,17.7,29.88,NE,56,16.0,24.0,93,0.00,-SN,,0.00,WeatherDisplay:10.37,2013-02-08 22:13:00,
2013-02-08 17:23:00,19.6,18.2,29.88,NE,55,14.0,23.0,94,0.00,-SN,,0.00,WeatherDisplay:10.37,2013-02-08 22:23:00,
2013-02-08 17:33:00,19.3,17.6,29.88,ENE,57,12.0,22.0,93,0.00,-SN,,0.00,WeatherDisplay:10.37,2013-02-08 22:33:00,
2013-02-08 17:43:00,19.3,17.6,29.88,NE,54,13.0,27.0,93,0.00,-SN,,0.00,WeatherDisplay:10.37,2013-02-08 22:43:00,
2013-02-08 17:53:00,19.3,17.6,29.87,ENE,59,12.0,24.0,93,0.00,-SN,,0.00,WeatherDisplay:10.37,2013-02-08 22:53:00,
2013-02-08 18:03:00,19.4,18.0,29.87,ENE,64,15.0,23.0,94,0.00,-SN,,0.00,WeatherDisplay:10.37,2013-02-08 23:03:00,
2013-02-08 18:13:00,19.4,18.0,29.85,ENE,61,13.0,26.0,94,0.00,-SN,,0.00,WeatherDisplay:10.37,2013-02-08 23:13:00,
2013-02-08 18:23:00,19.4,18.0,29.85,ENE,57,13.0,26.0,94,0.00,-SN,,0.00,WeatherDisplay:10.37,2013-02-08 23:23:00,
2013-02-08 18:33:00,19.4,18.0,29.85,ENE,59,15.0,24.0,94,0.00,-SN,,0.00,WeatherDisplay:10.37,2013-02-08 23:33:00,
2013-02-08 18:43:00,19.2,17.5,29.84,ENE,57,18.0,28.0,93,0.00,-SN,,0.00,WeatherDisplay:10.37,2013-02-08 23:43:00,
2013-02-08 18:53:00,18.9,17.2,29.82,NE,55,15.0,28.0,93,0.00,-SN,,0.00,WeatherDisplay:10.37,2013-02-08 23:53:00,
2013-02-08 19:03:00,18.7,17.0,29.82,NE,55,15.0,30.0,93,0.00,-SN,,0.00,WeatherDisplay:10.37,2013-02-09 00:03:00,
2013-02-08 19:13:00,18.5,16.8,29.80,ENE,62,16.0,26.0,93,0.01,-SN,,0.01,WeatherDisplay:10.37,2013-02-09 00:13:00,
2013-02-08 19:23:00,18.3,16.6,29.80,ENE,58,13.0,26.0,93,0.00,,,0.01,WeatherDisplay:10.37,2013-02-09 00:23:00,
2013-02-08 19:33:00,17.9,16.2,29.80,NE,53,12.0,25.0,93,0.00,,,0.01,WeatherDisplay:10.37,2013-02-09 00:33:00,
2013-02-08 19:43:00,17.9,16.2,29.78,ENE,59,14.0,26.0,93,0.00,,,0.01,WeatherDisplay:10.37,2013-02-09 00:43:00,
2013-02-08 19:53:00,18.0,16.3,29.77,NE,46,17.0,30.0,93,0.00,,,0.01,WeatherDisplay:10.37,2013-02-09 00:53:00,
2013-02-08 20:03:00,18.0,16.3,29.77,ENE,59,15.0,25.0,93,0.00,,,0.01,WeatherDisplay:10.37,2013-02-09 01:03:00,
2013-02-08 20:13:00,18.0,16.3,29.75,ENE,57,14.0,32.0,93,0.00,,,0.01,WeatherDisplay:10.37,2013-02-09 01:13:00,
2013-02-08 20:23:00,18.2,16.5,29.75,ENE,57,13.0,23.0,93,0.00,,,0.01,WeatherDisplay:10.37,2013-02-09 01:23:00,
2013-02-08 20:33:00,18.3,16.6,29.75,ENE,62,16.0,29.0,93,0.00,,,0.01,WeatherDisplay:10.37,2013-02-09 01:33:00,
2013-02-08 20:43:00,18.5,17.1,29.74,NE,55,17.0,29.0,94,0.00,,,0.01,WeatherDisplay:10.37,2013-02-09 01:43:00,
2013-02-08 20:53:00,18.5,16.8,29.73,NE,56,14.0,32.0,93,0.00,,,0.01,WeatherDisplay:10.37,2013-02-09 01:53:00,
2013-02-08 21:03:00,18.3,16.6,29.73,NE,55,17.0,31.0,93,0.00,,,0.01,WeatherDisplay:10.37,2013-02-09 02:03:00,
2013-02-08 21:13:00,18.2,16.5,29.72,ENE,58,16.0,33.0,93,0.00,,,0.01,WeatherDisplay:10.37,2013-02-09 02:13:00,
2013-02-08 21:23:00,18.1,16.4,29.70,ENE,63,20.0,28.0,93,0.00,,,0.01,WeatherDisplay:10.37,2013-02-09 02:23:00,
2013-02-08 21:33:00,18.0,16.3,29.70,NE,56,14.0,30.0,93,0.00,,,0.01,WeatherDisplay:10.37,2013-02-09 02:33:00,
2013-02-08 21:43:00,17.7,16.0,29.69,NE,50,17.0,29.0,93,0.00,,,0.01,WeatherDisplay:10.37,2013-02-09 02:43:00,
2013-02-08 21:53:00,17.6,15.9,29.67,NE,54,18.0,32.0,93,0.00,,,0.01,WeatherDisplay:10.37,2013-02-09 02:53:00,
2013-02-08 22:03:00,17.4,15.7,29.67,ENE,64,17.0,33.0,93,0.00,,,0.01,WeatherDisplay:10.37,2013-02-09 03:03:00,
2013-02-08 22:13:00,16.9,15.0,29.67,NE,48,17.0,36.0,92,0.00,,,0.01,WeatherDisplay:10.37,2013-02-09 03:13:00,
2013-02-08 22:23:00,16.5,14.6,29.67,ENE,58,13.0,32.0,92,0.00,,,0.01,WeatherDisplay:10.37,2013-02-09 03:23:00,
2013-02-08 22:33:00,15.9,14.0,29.67,NE,56,15.0,32.0,92,0.00,,,0.01,WeatherDisplay:10.37,2013-02-09 03:33:00,
2013-02-08 22:43:00,15.6,13.7,29.67,NE,50,16.0,29.0,92,0.00,,,0.01,WeatherDisplay:10.37,2013-02-09 03:43:00,
2013-02-08 22:53:00,15.5,13.6,29.65,NE,55,15.0,30.0,92,0.00,,,0.01,WeatherDisplay:10.37,2013-02-09 03:53:00,
2013-02-08 23:03:00,15.3,13.4,29.65,NE,50,12.0,33.0,92,0.00,,,0.01,WeatherDisplay:10.37,2013-02-09 04:03:00,
2013-02-08 23:13:00,15.3,13.4,29.64,NE,54,15.0,35.0,92,0.00,,,0.01,WeatherDisplay:10.37,2013-02-09 04:13:00,
2013-02-08 23:23:00,15.3,13.4,29.64,NE,49,21.0,32.0,92,0.00,,,0.01,WeatherDisplay:10.37,2013-02-09 04:23:00,
2013-02-08 23:33:00,15.3,13.4,29.64,ENE,58,12.0,31.0,92,0.00,,,0.01,WeatherDisplay:10.37,2013-02-09 04:33:00,
2013-02-08 23:43:00,15.1,13.2,29.63,NE,51,12.0,27.0,92,0.00,,,0.01,WeatherDisplay:10.37,2013-02-09 04:43:00,
2013-02-08 23:53:00,15.0,13.1,29.63,NE,39,12.0,24.0,92,0.00,,,0.01,WeatherDisplay:10.37,2013-02-09 04:53:00,